| time (UTC) | temp F | wind direction | speed MPH | gust MPH | rain 1hr in | rain 24hr in | rain mn in | humidity % | barometer mb |
| 20260507134537 | 71 | 70 | 2.0 | 8.0 | 0.00 | 0.00 | 0.00 | 91 | 1015.6 |
| 20260507134036 | 71 | 80 | 6.0 | 8.0 | 0.00 | 0.00 | 0.00 | 91 | 1016.6 |
| 20260507133035 | 71 | 47 | 8.0 | 10.0 | 0.00 | 0.00 | 0.00 | 91 | 1016.6 |
| 20260507133010 | 71 | 52 | 7.0 | 10.0 | 0.00 | 0.00 | 0.00 | 91 | 1015.6 |
| 20260507132036 | 71 | 23 | 3.0 | 10.0 | 0.00 | 0.00 | 0.00 | 91 | 1016.7 |
| 20260507131608 | 71 | 78 | 6.0 | 10.0 | 0.00 | 0.00 | 0.00 | 91 | 1015.7 |
| 20260507131036 | 71 | 76 | 6.0 | 9.0 | 0.00 | 0.00 | 0.00 | 91 | 1016.7 |
| 20260507130038 | 71 | 49 | 6.0 | 10.0 | 0.00 | 0.00 | 0.00 | 91 | 1015.7 |
| 20260507130036 | 71 | 47 | 6.0 | 10.0 | 0.00 | 0.00 | 0.00 | 91 | 1016.7 |
| 20260507125036 | 71 | 58 | 4.0 | 7.0 | 0.00 | 0.00 | 0.00 | 92 | 1016.8 |
| 20260507124516 | 71 | 24 | 4.0 | 7.0 | 0.00 | 0.00 | 0.00 | 92 | 1015.7 |
| 20260507124036 | 72 | 77 | 4.0 | 7.0 | 0.00 | 0.00 | 0.00 | 92 | 1016.8 |
| 20260507123104 | 71 | 24 | 4.0 | 7.0 | 0.00 | 0.00 | 0.00 | 92 | 1016.0 |
| 20260507123036 | 71 | 34 | 6.0 | 7.0 | 0.00 | 0.00 | 0.00 | 92 | 1017.0 |
| 20260507122036 | 71 | 53 | 2.0 | 9.0 | 0.00 | 0.00 | 0.00 | 92 | 1017.0 |
| 20260507121537 | 71 | 27 | 4.0 | 12.0 | 0.00 | 0.00 | 0.00 | 92 | 1016.1 |
| 20260507121036 | 72 | 54 | 5.0 | 11.0 | 0.00 | 0.00 | 0.00 | 92 | 1017.1 |
| 20260507120036 | 72 | 17 | 5.0 | 9.0 | 0.00 | 0.00 | 0.00 | 92 | 1017.2 |
| 20260507120008 | 71 | 19 | 5.0 | 9.0 | 0.00 | 0.00 | 0.00 | 92 | 1016.2 |
| 20260507115036 | 72 | 62 | 3.0 | 9.0 | 0.00 | 0.00 | 0.00 | 92 | 1017.2 |
| 20260507114559 | 71 | 80 | 4.0 | 9.0 | 0.00 | 0.00 | 0.00 | 91 | 1016.3 |
| 20260507114036 | 72 | 85 | 4.0 | 8.0 | 0.00 | 0.00 | 0.00 | 91 | 1017.3 |
| 20260507113036 | 72 | 46 | 2.0 | 10.0 | 0.00 | 0.00 | 0.00 | 91 | 1017.5 |
| 20260507113034 | 71 | 60 | 5.0 | 10.0 | 0.00 | 0.00 | 0.00 | 91 | 1016.5 |
| 20260507112036 | 72 | 62 | 8.0 | 11.0 | 0.00 | 0.00 | 0.00 | 91 | 1017.6 |
| 20260507111514 | 71 | 37 | 6.0 | 10.0 | 0.00 | 0.00 | 0.00 | 91 | 1016.6 |
| 20260507111035 | 72 | 20 | 2.0 | 10.0 | 0.00 | 0.00 | 0.00 | 91 | 1017.6 |
| 20260507110059 | 71 | 40 | 4.0 | 9.0 | 0.00 | 0.00 | 0.00 | 91 | 1016.7 |
| 20260507110036 | 72 | 79 | 4.0 | 11.0 | 0.00 | 0.00 | 0.00 | 91 | 1017.7 |
| 20260507105035 | 72 | 43 | 7.0 | 12.0 | 0.00 | 0.00 | 0.00 | 91 | 1017.9 |
| 20260507104524 | 71 | 60 | 6.0 | 10.0 | 0.00 | 0.00 | 0.00 | 91 | 1016.8 |
| 20260507104035 | 72 | 74 | 6.0 | 11.0 | 0.00 | 0.00 | 0.00 | 91 | 1017.9 |
| 20260507103130 | 71 | 72 | 7.0 | 12.0 | 0.00 | 0.00 | 0.00 | 91 | 1016.9 |
| 20260507103036 | 72 | 17 | 11.0 | 12.0 | 0.00 | 0.00 | 0.00 | 91 | 1018.0 |
| 20260507102035 | 72 | 12 | 7.0 | 11.0 | 0.00 | 0.00 | 0.00 | 91 | 1018.0 |
| 20260507101543 | 71 | 42 | 5.0 | 11.0 | 0.00 | 0.00 | 0.00 | 91 | 1016.9 |
| 20260507101036 | 72 | 72 | 7.0 | 12.0 | 0.00 | 0.00 | 0.00 | 91 | 1018.1 |
| 20260507100035 | 72 | 27 | 7.0 | 12.0 | 0.00 | 0.00 | 0.00 | 91 | 1018.2 |
| 20260507100019 | 71 | 36 | 7.0 | 13.0 | 0.00 | 0.00 | 0.00 | 91 | 1017.1 |
| 20260507095035 | 72 | 79 | 7.0 | 11.0 | 0.00 | 0.00 | 0.00 | 91 | 1018.1 |
| 20260507094605 | 71 | 62 | 4.0 | 11.0 | 0.00 | 0.00 | 0.00 | 91 | 1017.1 |
| 20260507094036 | 72 | 69 | 6.0 | 12.0 | 0.00 | 0.00 | 0.00 | 91 | 1018.1 |
| 20260507093046 | 72 | 77 | 5.0 | 12.0 | 0.00 | 0.00 | 0.00 | 91 | 1017.2 |
| 20260507093035 | 72 | 69 | 4.0 | 11.0 | 0.00 | 0.00 | 0.00 | 91 | 1018.3 |
| 20260507092036 | 72 | 33 | 3.0 | 9.0 | 0.00 | 0.00 | 0.00 | 91 | 1018.3 |
| 20260507091515 | 72 | 78 | 6.0 | 10.0 | 0.00 | 0.00 | 0.00 | 91 | 1017.3 |
| 20260507091035 | 72 | 47 | 8.0 | 9.0 | 0.00 | 0.00 | 0.00 | 91 | 1018.4 |
| 20260507090059 | 72 | 61 | 6.0 | 11.0 | 0.00 | 0.00 | 0.00 | 91 | 1017.4 |
| 20260507090035 | 72 | 52 | 7.0 | 10.0 | 0.00 | 0.00 | 0.00 | 91 | 1018.5 |
| 20260507085036 | 72 | 26 | 4.0 | 8.0 | 0.00 | 0.00 | 0.00 | 91 | 1018.5 |
| 20260507084539 | 72 | 17 | 5.0 | 11.0 | 0.00 | 0.00 | 0.00 | 91 | 1017.4 |
| 20260507084035 | 72 | 32 | 3.0 | 12.0 | 0.00 | 0.00 | 0.00 | 91 | 1018.5 |
| 20260507083035 | 72 | 18 | 5.0 | 9.0 | 0.00 | 0.00 | 0.00 | 91 | 1018.5 |
| 20260507083004 | 72 | 20 | 5.0 | 10.0 | 0.00 | 0.00 | 0.00 | 91 | 1017.4 |
| 20260507082035 | 72 | 29 | 6.0 | 11.0 | 0.00 | 0.00 | 0.00 | 91 | 1018.5 |
| 20260507081548 | 72 | 62 | 8.0 | 11.0 | 0.00 | 0.00 | 0.00 | 90 | 1017.4 |
| 20260507081035 | 72 | 16 | 5.0 | 11.0 | 0.00 | 0.00 | 0.00 | 90 | 1018.6 |
| 20260507080036 | 72 | 8 | 3.0 | 12.0 | 0.00 | 0.00 | 0.00 | 90 | 1018.5 |
| 20260507080025 | 72 | 17 | 5.0 | 12.0 | 0.00 | 0.00 | 0.00 | 90 | 1017.4 |
| 20260507075035 | 72 | 358 | 5.0 | 12.0 | 0.00 | 0.00 | 0.00 | 90 | 1018.4 |
| 20260507074552 | 72 | 29 | 3.0 | 12.0 | 0.00 | 0.00 | 0.00 | 90 | 1017.3 |
| 20260507074035 | 72 | 19 | 5.0 | 12.0 | 0.00 | 0.00 | 0.00 | 90 | 1018.3 |
| 20260507073035 | 72 | 21 | 5.0 | 11.0 | 0.00 | 0.00 | 0.00 | 89 | 1018.2 |
| 20260507073023 | 72 | 10 | 5.0 | 11.0 | 0.00 | 0.00 | 0.00 | 89 | 1017.3 |
| 20260507072036 | 72 | 16 | 5.0 | 10.0 | 0.00 | 0.00 | 0.00 | 89 | 1018.1 |
| 20260507071605 | 72 | 39 | 5.0 | 11.0 | 0.00 | 0.00 | 0.00 | 89 | 1017.1 |
| 20260507071035 | 72 | 39 | 6.0 | 13.0 | 0.00 | 0.00 | 0.00 | 89 | 1018.1 |
| 20260507070035 | 72 | 18 | 7.0 | 12.0 | 0.00 | 0.00 | 0.00 | 89 | 1016.9 |
| 20260507065035 | 72 | 61 | 8.0 | 11.0 | 0.00 | 0.00 | 0.00 | 88 | 1017.8 |
| 20260507064502 | 72 | 18 | 4.0 | 12.0 | 0.00 | 0.00 | 0.00 | 88 | 1016.7 |
| 20260507064035 | 72 | 353 | 5.0 | 12.0 | 0.00 | 0.00 | 0.00 | 88 | 1017.6 |
| 20260507063041 | 72 | 13 | 4.0 | 13.0 | 0.00 | 0.00 | 0.00 | 88 | 1016.5 |
| 20260507063036 | 72 | 53 | 5.0 | 13.0 | 0.00 | 0.00 | 0.00 | 88 | 1017.5 |
| 20260507062035 | 73 | 3 | 9.0 | 16.0 | 0.00 | 0.00 | 0.00 | 87 | 1017.4 |
| 20260507061508 | 72 | 77 | 10.0 | 16.0 | 0.00 | 0.00 | 0.00 | 87 | 1016.4 |
| 20260507061035 | 72 | 81 | 9.0 | 14.0 | 0.00 | 0.00 | 0.00 | 88 | 1017.3 |
| 20260507060046 | 72 | 31 | 6.0 | 13.0 | 0.00 | 0.00 | 0.00 | 88 | 1016.2 |
| 20260507060035 | 73 | 32 | 5.0 | 15.0 | 0.00 | 0.00 | 0.00 | 88 | 1017.2 |
| 20260507055035 | 72 | 67 | 6.0 | 15.0 | 0.00 | 0.00 | 0.00 | 88 | 1017.0 |
| 20260507054517 | 72 | 32 | 7.0 | 12.0 | 0.00 | 0.00 | 0.00 | 88 | 1015.9 |
| 20260507054035 | 73 | 28 | 9.0 | 14.0 | 0.00 | 0.00 | 0.00 | 88 | 1016.9 |
| 20260507053108 | 72 | 56 | 9.0 | 14.0 | 0.00 | 0.00 | 0.00 | 89 | 1015.7 |
| 20260507053036 | 73 | 24 | 10.0 | 14.0 | 0.00 | 0.00 | 0.00 | 89 | 1016.7 |
| 20260507052035 | 73 | 14 | 8.0 | 11.0 | 0.00 | 0.00 | 0.00 | 89 | 1016.6 |
| 20260507051547 | 72 | 52 | 6.0 | 12.0 | 0.00 | 0.00 | 0.00 | 89 | 1015.6 |
| 20260507051035 | 73 | 12 | 5.0 | 14.0 | 0.00 | 0.00 | 0.00 | 89 | 1016.4 |
| 20260507050035 | 73 | 356 | 8.0 | 12.0 | 0.00 | 0.00 | 0.00 | 89 | 1016.3 |
| 20260507045035 | 73 | 61 | 11.0 | 12.0 | 0.00 | 0.00 | 0.00 | 89 | 1016.2 |
| 20260507044600 | 72 | 16 | 6.0 | 13.0 | 0.00 | 0.00 | 0.00 | 89 | 1015.1 |
| 20260507044035 | 73 | 22 | 10.0 | 13.0 | 0.00 | 0.00 | 0.00 | 89 | 1016.1 |
| 20260507043039 | 72 | 123 | 7.0 | 16.0 | 0.00 | 0.00 | 0.00 | 89 | 1015.1 |
| 20260507043035 | 73 | 60 | 8.0 | 15.0 | 0.00 | 0.00 | 0.00 | 89 | 1016.1 |
| 20260507042035 | 73 | 16 | 7.0 | 13.0 | 0.00 | 0.00 | 0.00 | 89 | 1015.9 |
| 20260507041515 | 72 | 12 | 7.0 | 14.0 | 0.00 | 0.00 | 0.00 | 89 | 1014.9 |
| 20260507041035 | 73 | 60 | 13.0 | 14.0 | 0.00 | 0.00 | 0.00 | 89 | 1015.8 |
| 20260507040100 | 73 | 32 | 11.0 | 14.0 | 0.00 | 0.00 | 0.00 | 89 | 1014.6 |
| 20260507040035 | 73 | 60 | 11.0 | 14.0 | 0.00 | 0.00 | 0.00 | 89 | 1015.6 |
| 20260507035035 | 73 | 9 | 5.0 | 17.0 | 0.00 | 0.00 | 0.00 | 89 | 1015.5 |
| 20260507034535 | 73 | 20 | 10.0 | 15.0 | 0.00 | 0.00 | 0.00 | 89 | 1014.6 |
| 20260507034035 | 73 | 20 | 7.0 | 14.0 | 0.00 | 0.00 | 0.00 | 89 | 1015.3 |
| 20260507033035 | 74 | 69 | 10.0 | 13.0 | 0.00 | 0.00 | 0.00 | 89 | 1015.3 |
| 20260507033019 | 73 | 19 | 8.0 | 13.0 | 0.00 | 0.00 | 0.00 | 89 | 1014.4 |
| 20260507032035 | 74 | 72 | 5.0 | 16.0 | 0.00 | 0.00 | 0.00 | 89 | 1015.2 |
| 20260507031607 | 73 | 16 | 10.0 | 17.0 | 0.00 | 0.00 | 0.00 | 89 | 1014.3 |
| 20260507031035 | 74 | 71 | 12.0 | 17.0 | 0.00 | 0.00 | 0.00 | 88 | 1015.1 |
| 20260507030042 | 74 | 32 | 8.0 | 18.0 | 0.00 | 0.00 | 0.00 | 87 | 1014.1 |
| 20260507030035 | 74 | 36 | 10.0 | 18.0 | 0.00 | 0.00 | 0.00 | 87 | 1015.1 |
| 20260507025035 | 74 | 18 | 13.0 | 19.0 | 0.00 | 0.00 | 0.00 | 86 | 1015.0 |
| 20260507024523 | 74 | 48 | 10.0 | 16.0 | 0.00 | 0.00 | 0.00 | 86 | 1014.0 |
| 20260507024035 | 74 | 10 | 7.0 | 16.0 | 0.00 | 0.00 | 0.00 | 86 | 1015.0 |
| 20260507023109 | 74 | 22 | 12.0 | 18.0 | 0.00 | 0.00 | 0.00 | 84 | 1014.0 |
| 20260507023035 | 75 | 50 | 13.0 | 18.0 | 0.00 | 0.00 | 0.00 | 84 | 1014.9 |
| 20260507022035 | 75 | 27 | 6.0 | 17.0 | 0.00 | 0.00 | 0.00 | 84 | 1014.9 |
| 20260507021540 | 75 | 76 | 10.0 | 18.0 | 0.00 | 0.00 | 0.00 | 85 | 1013.9 |
| 20260507021035 | 75 | 86 | 8.0 | 19.0 | 0.00 | 0.00 | 0.00 | 86 | 1014.9 |
| 20260507020035 | 75 | 79 | 12.0 | 17.0 | 0.00 | 0.00 | 0.00 | 85 | 1015.0 |
| 20260507020002 | 74 | 53 | 10.0 | 18.0 | 0.00 | 0.00 | 0.00 | 85 | 1014.1 |
| 20260507015035 | 75 | 49 | 8.0 | 17.0 | 0.00 | 0.00 | 0.00 | 85 | 1015.1 |
| 20260507014619 | 74 | 8 | 10.0 | 17.0 | 0.00 | 0.00 | 0.00 | 84 | 1014.1 |
| 20260507014035 | 75 | 20 | 9.0 | 15.0 | 0.00 | 0.00 | 0.00 | 85 | 1015.0 |
| 20260507013045 | 74 | 16 | 10.0 | 17.0 | 0.00 | 0.00 | 0.00 | 85 | 1014.2 |
| 20260507013035 | 75 | 68 | 10.0 | 17.0 | 0.00 | 0.00 | 0.00 | 85 | 1015.1 |
| 20260507012035 | 75 | 21 | 10.0 | 17.0 | 0.00 | 0.00 | 0.00 | 83 | 1015.0 |
| 20260507011517 | 75 | 354 | 8.0 | 17.0 | 0.00 | 0.00 | 0.00 | 84 | 1014.2 |
| 20260507011035 | 75 | 39 | 10.0 | 17.0 | 0.00 | 0.00 | 0.00 | 84 | 1015.1 |
| 20260507010035 | 75 | 98 | 12.0 | 18.0 | 0.00 | 0.00 | 0.00 | 83 | 1015.2 |
| 20260507005035 | 76 | 54 | 11.0 | 18.0 | 0.00 | 0.00 | 0.00 | 83 | 1015.2 |
| 20260507004531 | 76 | 359 | 13.0 | 22.0 | 0.00 | 0.00 | 0.00 | 82 | 1014.4 |
| 20260507004035 | 77 | 86 | 16.0 | 22.0 | 0.00 | 0.00 | 0.00 | 82 | 1015.4 |
| 20260507003035 | 77 | 57 | 8.0 | 18.0 | 0.00 | 0.00 | 0.00 | 83 | 1015.5 |
| 20260507003004 | 76 | 65 | 13.0 | 18.0 | 0.00 | 0.00 | 0.00 | 83 | 1014.5 |
| 20260507002035 | 77 | 93 | 11.0 | 17.0 | 0.00 | 0.00 | 0.00 | 79 | 1015.6 |
| 20260507001602 | 77 | 39 | 10.0 | 19.0 | 0.00 | 0.00 | 0.00 | 80 | 1014.6 |
| 20260507001035 | 77 | 99 | 14.0 | 15.0 | 0.00 | 0.00 | 0.00 | 79 | 1015.6 |
| 20260507000035 | 77 | 136 | 6.0 | 15.0 | 0.00 | 0.00 | 0.00 | 81 | 1015.7 |
| 20260507000026 | 76 | 100 | 8.0 | 14.0 | 0.00 | 0.00 | 0.00 | 81 | 1014.8 |
| 20260506235035 | 77 | 91 | 9.0 | 17.0 | 0.00 | 0.00 | 0.00 | 81 | 1015.8 |
| 20260506234628 | 76 | 85 | 11.0 | 18.0 | 0.00 | 0.00 | 0.00 | 79 | 1014.8 |
| 20260506234035 | 77 | 74 | 12.0 | 17.0 | 0.00 | 0.00 | 0.00 | 81 | 1015.8 |
| 20260506233048 | 77 | 71 | 11.0 | 18.0 | 0.00 | 0.00 | 0.00 | 80 | 1015.0 |
| 20260506233035 | 77 | 91 | 11.0 | 18.0 | 0.00 | 0.00 | 0.00 | 79 | 1016.0 |
| 20260506232035 | 78 | 104 | 7.0 | 17.0 | 0.00 | 0.00 | 0.00 | 76 | 1016.0 |
| 20260506231503 | 78 | 19 | 9.0 | 16.0 | 0.00 | 0.00 | 0.00 | 77 | 1015.0 |
| 20260506231035 | 78 | 76 | 12.0 | 16.0 | 0.00 | 0.00 | 0.00 | 77 | 1016.0 |
| 20260506230047 | 77 | 86 | 11.0 | 17.0 | 0.00 | 0.00 | 0.00 | 79 | 1015.0 |
| 20260506230034 | 78 | 67 | 14.0 | 17.0 | 0.00 | 0.00 | 0.00 | 79 | 1016.1 |
| 20260506225035 | 78 | 17 | 10.0 | 17.0 | 0.00 | 0.00 | 0.00 | 79 | 1016.2 |
| 20260506224510 | 77 | 130 | 10.0 | 17.0 | 0.00 | 0.00 | 0.00 | 79 | 1015.2 |
| 20260506224035 | 78 | 55 | 11.0 | 17.0 | 0.00 | 0.00 | 0.00 | 79 | 1016.3 |
| 20260506223104 | 77 | 17 | 9.0 | 16.0 | 0.00 | 0.00 | 0.00 | 79 | 1015.1 |
| 20260506223035 | 78 | 90 | 11.0 | 16.0 | 0.00 | 0.00 | 0.00 | 79 | 1016.3 |
| 20260506222034 | 78 | 64 | 13.0 | 17.0 | 0.00 | 0.00 | 0.00 | 79 | 1016.4 |
| 20260506221521 | 77 | 70 | 11.0 | 16.0 | 0.00 | 0.00 | 0.00 | 79 | 1015.3 |
| 20260506221034 | 78 | 135 | 11.0 | 17.0 | 0.00 | 0.00 | 0.00 | 78 | 1016.4 |
| 20260506220034 | 78 | 22 | 7.0 | 16.0 | 0.00 | 0.00 | 0.00 | 79 | 1016.6 |
| 20260506215034 | 78 | 83 | 13.0 | 16.0 | 0.00 | 0.00 | 0.00 | 77 | 1016.6 |
| 20260506214536 | 77 | 94 | 9.0 | 17.0 | 0.00 | 0.00 | 0.00 | 80 | 1015.7 |
| 20260506214034 | 77 | 69 | 13.0 | 16.0 | 0.00 | 0.00 | 0.00 | 79 | 1016.8 |
| 20260506213034 | 78 | 77 | 10.0 | 15.0 | 0.00 | 0.00 | 0.00 | 80 | 1017.0 |
| 20260506213013 | 77 | 91 | 10.0 | 17.0 | 0.00 | 0.00 | 0.00 | 81 | 1015.8 |
| 20260506212034 | 78 | 15 | 12.0 | 15.0 | 0.00 | 0.00 | 0.00 | 79 | 1017.0 |
| 20260506211555 | 77 | 67 | 8.0 | 16.0 | 0.00 | 0.00 | 0.00 | 80 | 1015.9 |
| 20260506211034 | 77 | 66 | 7.0 | 16.0 | 0.00 | 0.00 | 0.00 | 79 | 1016.9 |
| 20260506210034 | 78 | 67 | 11.0 | 17.0 | 0.00 | 0.00 | 0.00 | 79 | 1017.0 |
| 20260506205034 | 77 | 55 | 8.0 | 16.0 | 0.00 | 0.00 | 0.00 | 80 | 1017.0 |
| 20260506204611 | 77 | 74 | 10.0 | 17.0 | 0.00 | 0.00 | 0.00 | 79 | 1016.0 |
| 20260506204034 | 78 | 22 | 11.0 | 14.0 | 0.00 | 0.00 | 0.00 | 78 | 1016.9 |
| 20260506203041 | 76 | 68 | 7.0 | 15.0 | 0.00 | 0.00 | 0.00 | 78 | 1016.0 |
| 20260506203034 | 77 | 43 | 7.0 | 15.0 | 0.00 | 0.00 | 0.00 | 79 | 1017.0 |
| 20260506202034 | 77 | 92 | 5.0 | 14.0 | 0.00 | 0.00 | 0.00 | 81 | 1016.9 |
| 20260506201518 | 77 | 33 | 9.0 | 15.0 | 0.00 | 0.00 | 0.00 | 81 | 1015.9 |
| 20260506201034 | 77 | 117 | 7.0 | 14.0 | 0.00 | 0.00 | 0.00 | 80 | 1016.9 |
| 20260506200100 | 77 | 67 | 6.0 | 12.0 | 0.00 | 0.00 | 0.00 | 80 | 1015.9 |
| 20260506200035 | 77 | 28 | 5.0 | 12.0 | 0.00 | 0.00 | 0.00 | 81 | 1016.9 |
| 20260506195035 | 78 | 118 | 6.0 | 12.0 | 0.00 | 0.00 | 0.00 | 80 | 1017.1 |
| 20260506194544 | 77 | 77 | 7.0 | 12.0 | 0.00 | 0.00 | 0.00 | 79 | 1016.0 |
| 20260506194034 | 77 | 21 | 5.0 | 12.0 | 0.00 | 0.00 | 0.00 | 79 | 1016.9 |
| 20260506193034 | 77 | 65 | 7.0 | 11.0 | 0.00 | 0.00 | 0.00 | 81 | 1017.0 |
| 20260506193012 | 77 | 76 | 4.0 | 12.0 | 0.00 | 0.00 | 0.00 | 81 | 1016.0 |
| 20260506192034 | 76 | 91 | 9.0 | 10.0 | 0.00 | 0.00 | 0.00 | 80 | 1016.8 |
| 20260506191600 | 76 | 94 | 6.0 | 10.0 | 0.00 | 0.00 | 0.00 | 79 | 1015.9 |
| 20260506191034 | 77 | 152 | 3.0 | 10.0 | 0.00 | 0.00 | 0.00 | 81 | 1016.8 |
| 20260506190034 | 76 | 129 | 7.0 | 10.0 | 0.00 | 0.00 | 0.00 | 81 | 1016.8 |
| 20260506190026 | 76 | 123 | 5.0 | 10.0 | 0.00 | 0.00 | 0.00 | 81 | 1015.8 |
| 20260506185034 | 76 | 123 | 2.0 | 8.0 | 0.00 | 0.00 | 0.00 | 81 | 1016.7 |
| 20260506184604 | 75 | 123 | 5.0 | 8.0 | 0.00 | 0.00 | 0.00 | 82 | 1015.6 |
| 20260506184034 | 76 | 122 | 4.0 | 8.0 | 0.00 | 0.00 | 0.00 | 81 | 1016.6 |
| 20260506183043 | 75 | 95 | 6.0 | 9.0 | 0.00 | 0.00 | 0.00 | 81 | 1015.6 |
| 20260506183034 | 76 | 93 | 8.0 | 9.0 | 0.00 | 0.00 | 0.00 | 81 | 1016.6 |
| 20260506182034 | 75 | 72 | 4.0 | 8.0 | 0.00 | 0.00 | 0.00 | 79 | 1016.5 |
| 20260506181533 | 75 | 72 | 5.0 | 10.0 | 0.00 | 0.00 | 0.00 | 78 | 1015.5 |
| 20260506181034 | 75 | 71 | 5.0 | 10.0 | 0.00 | 0.00 | 0.00 | 77 | 1016.5 |
| 20260506180034 | 76 | 24 | 3.0 | 9.0 | 0.00 | 0.00 | 0.00 | 77 | 1016.3 |
| 20260506180003 | 75 | 25 | 5.0 | 10.0 | 0.00 | 0.00 | 0.00 | 77 | 1015.3 |
| 20260506175034 | 76 | 95 | 3.0 | 5.0 | 0.00 | 0.00 | 0.00 | 76 | 1016.3 |
| 20260506174550 | 75 | 132 | 3.0 | 4.0 | 0.00 | 0.00 | 0.00 | 77 | 1015.4 |
| 20260506174034 | 76 | 77 | 2.0 | 4.0 | 0.00 | 0.00 | 0.00 | 78 | 1016.2 |
| 20260506173034 | 75 | 93 | 2.0 | 6.0 | 0.00 | 0.00 | 0.00 | 77 | 1016.0 |
| 20260506173009 | 74 | 91 | 3.0 | 6.0 | 0.00 | 0.00 | 0.00 | 78 | 1015.0 |
| 20260506172034 | 75 | 72 | 4.0 | 5.0 | 0.00 | 0.00 | 0.00 | 76 | 1016.0 |
| 20260506171609 | 75 | 71 | 3.0 | 5.0 | 0.00 | 0.00 | 0.00 | 74 | 1014.9 |
| 20260506171034 | 76 | 159 | 0.0 | 2.0 | 0.00 | 0.00 | 0.00 | 78 | 1015.8 |
| 20260506170036 | 74 | 272 | 0.0 | 1.0 | 0.00 | 0.00 | 0.00 | 84 | 1014.7 |
| 20260506170034 | 74 | 272 | 0.0 | 1.0 | 0.00 | 0.00 | 0.00 | 85 | 1015.6 |
| 20260506165034 | 72 | 273 | 0.0 | 1.0 | 0.00 | 0.00 | 0.00 | 86 | 1015.5 |
| 20260506164608 | 70 | 302 | 0.0 | 1.0 | 0.00 | 0.00 | 0.00 | 87 | 1014.6 |
| 20260506164034 | 70 | 302 | 0.0 | 2.0 | 0.00 | 0.00 | 0.00 | 87 | 1015.3 |
| 20260506163056 | 69 | 292 | 2.0 | 5.0 | 0.00 | 0.00 | 0.00 | 87 | 1014.4 |
| 20260506163034 | 69 | 299 | 2.0 | 6.0 | 0.00 | 0.00 | 0.00 | 87 | 1015.2 |
| 20260506162034 | 69 | 274 | 5.0 | 6.0 | 0.00 | 0.00 | 0.00 | 86 | 1015.1 |
| 20260506161525 | 68 | 286 | 4.0 | 6.0 | 0.00 | 0.00 | 0.00 | 86 | 1014.3 |
| 20260506161034 | 69 | 297 | 3.0 | 7.0 | 0.00 | 0.00 | 0.00 | 86 | 1015.0 |
| 20260506160034 | 69 | 261 | 5.0 | 7.0 | 0.00 | 0.00 | 0.00 | 86 | 1015.0 |
| 20260506160004 | 68 | 245 | 4.0 | 7.0 | 0.00 | 0.00 | 0.00 | 86 | 1014.2 |
| 20260506155034 | 69 | 278 | 5.0 | 6.0 | 0.00 | 0.00 | 0.00 | 87 | 1014.9 |
| 20260506154611 | 68 | 339 | 4.0 | 6.0 | 0.00 | 0.00 | 0.00 | 87 | 1014.1 |
| 20260506154034 | 69 | 310 | 3.0 | 6.0 | 0.00 | 0.00 | 0.00 | 87 | 1014.9 |
| 20260506153034 | 69 | 329 | 3.0 | 5.0 | 0.00 | 0.00 | 0.00 | 87 | 1014.8 |
| 20260506153028 | 68 | 300 | 4.0 | 5.0 | 0.00 | 0.00 | 0.00 | 87 | 1014.0 |
| 20260506152034 | 69 | 294 | 2.0 | 5.0 | 0.00 | 0.00 | 0.00 | 86 | 1014.7 |
| 20260506151508 | 68 | 266 | 3.0 | 6.0 | 0.00 | 0.00 | 0.00 | 87 | 1013.9 |
| 20260506151034 | 68 | 311 | 4.0 | 6.0 | 0.00 | 0.00 | 0.00 | 87 | 1014.7 |
| 20260506150055 | 68 | 296 | 4.0 | 7.0 | 0.00 | 0.00 | 0.00 | 87 | 1013.6 |
| 20260506150034 | 68 | 261 | 4.0 | 6.0 | 0.00 | 0.00 | 0.00 | 87 | 1014.4 |
| 20260506145034 | 69 | 256 | 2.0 | 6.0 | 0.00 | 0.00 | 0.00 | 86 | 1014.5 |
| 20260506144539 | 68 | 281 | 4.0 | 6.0 | 0.00 | 0.00 | 0.00 | 87 | 1013.6 |
| 20260506144034 | 69 | 280 | 4.0 | 5.0 | 0.00 | 0.00 | 0.00 | 87 | 1014.5 |
| 20260506143034 | 69 | 273 | 2.0 | 6.0 | 0.00 | 0.00 | 0.00 | 86 | 1014.5 |
| 20260506143005 | 68 | 275 | 2.0 | 6.0 | 0.00 | 0.00 | 0.00 | 86 | 1013.6 |
| 20260506142034 | 69 | 287 | 5.0 | 5.0 | 0.00 | 0.00 | 0.00 | 87 | 1014.5 |
| 20260506141550 | 68 | 307 | 3.0 | 6.0 | 0.00 | 0.00 | 0.00 | 87 | 1013.6 |
| 20260506141034 | 69 | 278 | 4.0 | 6.0 | 0.00 | 0.00 | 0.00 | 87 | 1014.7 |
| 20260506140034 | 68 | 285 | 3.0 | 6.0 | 0.00 | 0.00 | 0.00 | 87 | 1013.7 |
| 20260506135034 | 69 | 268 | 6.0 | 6.0 | 0.00 | 0.00 | 0.00 | 87 | 1014.7 |